Back to catalog

COSMOS 1251

AliveMilitaryLEO
NORAD 12321·PAYLOAD·🇷🇺 Russia

Launched Mar 6, 1981 from Plesetsk Cosmodrome

Loading…

Next Passes (next 24 hours)

TLE

FreshSource: Space-Track

Epoch: Sep 14, 2026, 14:14 UTC

1 12321U 81022B   26257.59323247  .00000001  00000-0  10075-3 0  9996
2 12321  74.0298 304.5361 0044386  13.8589  59.1726 12.56491465 88157

Track COSMOS 1251 in real time with AllMySat

Download on the App Store